Wind_Speed
72 69 65 65 66 66 64 61 59 57 55 54 52 48 44 41 40 42 43 42 39 37 37 37 36 35 33 31 29 27 26 25 23 22 21 18 17 18 19 16 16 17 19 20 19
72 74 71 68 66 67 66 65 64 60 58 56 55 51 47 43 40 41 42 43 43 41 38 38 37 36 35 34 31 30 28 30 25 24 24 20 20 20 21 19 20 20 19 17 17
73 74 75 74 71 68 68 67 67 64 62 59 56 55 50 45 42 40 41 42 44 45 43 40 38 37 36 35 33 32 32 31 28 26 25 23 22 21 22 21 22 22 17 14 12
78 76 76 77 76 72 70 69 68 68 65 63 59 56 53 49 47 43 41 41 43 45 46 45 41 39 38 37 35 35 34 34 30 28 27 25 22 21 21 21 22 18 16 11 9
82 79 78 78 79 77 72 71 71 70 68 66 63 60 56 53 49 45 42 41 42 45 46 47 46 43 41 38 37 37 36 35 31 29 29 26 24 23 21 21 20 18 19 13 10
83 83 81 79 79 79 76 73 73 72 71 69 67 63 61 56 51 49 44 42 42 43 45 46 46 45 42 40 39 36 37 35 31 32 30 28 26 24 22 23 19 20 19 16 14
82 83 85 82 81 80 79 77 77 74 74 73 70 68 65 56 55 52 47 43 43 44 44 46 46 46 41 40 39 38 37 35 34 34 33 30 27 27 27 23 22 22 22 20 19
79 83 84 85 83 81 79 79 79 78 76 75 74 73 69 60 58 55 51 47 45 45 45 46 46 46 44 40 38 38 37 35 35 36 34 31 28 29 28 25 24 24 24 23 23
77 79 81 84 86 83 81 80 80 82 79 77 77 76 73 65 60 56 55 51 49 46 47 47 48 47 44 42 39 39 36 35 38 36 35 34 30 29 28 25 22 21 24 24 26
72 78 80 80 84 86 85 82 81 83 86 82 80 79 76 67 64 61 58 55 52 50 49 49 50 48 47 44 39 38 38 38 37 37 36 36 31 29 30 26 22 21 27 27 26
71 74 80 81 82 86 88 88 86 88 87 86 79 77 77 74 71 68 64 60 58 54 52 50 52 49 44 42 41 41 41 39 35 38 40 37 34 30 30 26 22 22 24 27 27
70 72 76 81 81 85 89 90 84 84 89 87 90 81 80 76 73 71 67 65 62 57 54 54 50 45 48 45 44 43 42 38 35 39 43 41 35 32 29 26 27 21 23 26 30
54 68 74 76 80 86 88 85 85 86 91 90 87 90 79 77 77 75 70 68 64 62 58 55 50 51 48 47 46 45 46 40 38 39 44 44 38 37 29 26 28 25 25 29 28
50 54 58 63 78 79 83 81 84 84 89 97 94 89 91 81 81 77 74 72 69 65 62 61 56 55 54 52 50 51 46 43 42 42 44 44 44 38 32 30 27 25 29 30 31
52 57 60 57 63 71 69 76 79 78 71 97 98 93 89 89 82 78 78 75 73 68 68 62 60 60 56 50 52 49 48 47 48 45 46 45 47 36 39 35 32 30 26 29 30
51 57 63 66 59 57 67 65 68 67 79 83 103 97 93 89 90 83 79 77 75 73 70 65 65 62 56 55 55 55 53 53 48 48 51 45 45 44 44 42 35 34 31 30 32
55 59 60 69 54 58 63 67 74 80 85 88 97 100 92 87 89 91 84 84 82 80 75 70 69 65 62 61 60 59 55 51 52 52 50 48 49 50 46 43 42 35 37 35 34
64 61 65 64 65 67 70 78 80 80 76 87 91 96 95 91 92 90 90 85 83 79 73 74 75 70 66 64 60 56 53 50 51 51 50 53 55 50 44 43 41 42 43 41 37
51 62 73 68 75 79 76 83 91 79 87 78 79 90 96 97 93 92 94 86 81 80 80 77 75 73 70 66 62 59 61 54 53 52 54 54 52 50 48 40 43 47 48 46 45
37 42 54 62 72 72 77 84 91 81 88 79 72 85 89 98 98 97 91 88 83 80 75 77 76 73 71 68 64 62 57 57 56 56 57 55 53 51 49 43 47 49 52 50 49
32 35 40 48 51 60 68 79 87 76 97 73 70 76 85 90 94 96 93 85 87 81 80 76 77 77 75 73 68 64 64 61 59 57 57 58 56 53 48 50 51 52 51 53 55
34 30 35 51 54 60 68 76 82 79 97 84 57 66 82 87 92 93 91 86 83 84 84 78 78 77 76 73 67 64 61 61 61 61 59 55 59 51 54 54 51 56 56 54 54
28 32 37 47 59 61 60 69 78 79 86 90 76 64 84 86 88 89 86 83 84 87 85 77 80 76 75 73 70 70 64 61 61 59 62 60 55 49 54 51 55 56 56 53 55
37 26 49 49 54 57 57 60 73 77 90 72 66 63 77 85 86 87 90 85 81 81 79 82 74 73 76 72 68 71 66 63 64 64 58 60 53 50 52 56 61 58 57 57 60
44 44 42 41 53 51 55 54 67 77 79 90 60 70 73 77 82 82 80 82 72 75 80 80 75 76 73 67 69 69 64 60 58 56 57 58 56 56 53 58 63 59 58 62 65
43 53 41 36 42 41 51 57 67 79 72 76 84 61 73 72 77 83 82 85 79 72 77 78 76 75 71 66 66 68 68 63 60 59 58 59 61 55 55 60 61 58 63 65 67
48 52 50 46 51 44 45 44 58 72 71 67 82 60 66 70 73 69 70 74 78 77 76 77 78 76 77 73 72 74 69 66 65 63 63 66 64 56 61 65 64 65 70 68 66
Wind_Direction
225 228 230 228 226 227 224 225 222 222 225 228 231 232 231 233 234 233 233 234 231 230 230 229 229 228 227 226 227 230 236 240 244 250 259 263 269 272 279 281 282 285 289 298 307
226 225 227 229 228 227 228 224 225 222 224 226 229 232 234 234 236 237 236 234 233 232 230 230 229 230 228 228 228 230 233 238 242 248 256 261 265 272 279 286 289 286 291 304 314
226 226 225 228 229 227 226 228 225 225 222 225 227 230 233 235 236 238 238 236 233 232 231 231 230 228 230 229 229 230 233 238 241 247 252 257 262 272 278 290 290 296 304 313 310
226 226 225 225 228 229 227 226 228 227 224 224 225 227 230 233 236 236 238 236 235 232 232 232 232 231 230 231 231 230 232 237 240 245 251 253 260 267 277 286 289 301 308 306 291
227 226 225 224 225 227 228 227 226 228 227 225 224 224 227 229 234 237 238 237 236 233 233 233 232 231 231 232 232 231 233 238 241 245 247 251 258 259 275 274 286 305 302 293 282
228 226 226 225 224 227 227 228 228 227 227 227 225 224 224 226 231 234 235 237 236 235 234 233 232 231 230 231 231 232 234 238 240 244 246 249 251 255 267 269 288 295 291 280 271
229 228 226 225 225 225 227 226 229 228 226 227 226 226 224 222 228 232 233 234 235 234 233 232 231 231 229 229 230 230 234 237 240 244 246 248 247 257 260 273 287 293 290 284 276
231 230 227 226 226 225 226 228 228 228 227 227 226 227 224 220 225 230 230 233 234 233 232 231 230 230 228 230 229 233 234 237 237 243 246 244 245 252 259 268 280 290 292 282 273
233 232 230 227 226 226 226 227 229 228 227 226 226 226 225 220 224 227 229 231 233 233 232 230 229 229 229 228 229 232 235 234 241 244 248 246 246 257 263 270 276 285 291 286 277
230 231 232 230 228 227 226 226 229 231 225 227 225 225 225 221 223 226 228 229 231 233 232 230 229 229 228 229 229 233 232 235 241 244 249 247 249 257 262 267 275 277 288 289 283
229 229 230 231 231 228 228 227 227 231 230 224 226 226 226 222 221 224 226 227 228 231 232 231 231 230 230 231 230 230 232 236 243 248 248 251 250 252 262 271 270 276 288 297 295
230 228 229 230 231 232 230 228 228 233 233 230 226 223 226 222 221 223 225 226 228 229 232 232 230 230 231 231 233 233 236 239 240 249 251 252 250 254 258 267 274 279 284 296 297
234 231 228 229 230 232 230 227 231 231 234 232 229 224 223 226 222 221 224 229 228 230 230 234 233 232 233 235 236 237 240 242 244 248 253 253 252 254 255 261 268 280 279 297 301
235 230 230 230 230 230 230 231 232 232 235 235 230 226 223 222 225 221 221 225 228 229 232 230 230 230 232 233 237 239 243 248 251 250 252 254 255 256 259 254 264 281 281 296 297
232 229 230 229 232 230 229 233 233 232 226 234 228 229 224 223 225 223 223 224 228 228 230 228 230 234 233 235 239 242 245 248 251 253 255 256 260 256 260 258 269 281 277 298 292
233 234 233 231 230 223 225 228 229 226 224 233 232 226 226 223 224 225 224 223 225 228 230 231 232 233 233 235 238 240 242 246 252 257 257 257 262 259 265 265 271 277 287 288 292
239 241 236 232 231 228 225 227 224 222 215 225 233 227 226 226 224 226 225 223 222 225 226 229 233 234 234 235 236 239 242 248 251 253 259 260 258 262 265 274 274 287 290 288 299
240 240 235 230 225 222 223 229 227 221 214 226 232 233 227 225 226 227 227 225 223 225 228 230 232 233 234 238 241 244 248 250 254 256 257 255 256 263 264 267 275 281 285 289 298
242 239 232 226 227 227 229 230 228 220 210 214 224 230 230 228 226 228 227 227 228 225 226 229 231 235 235 237 241 242 245 247 249 254 256 256 260 264 265 269 276 279 287 294 301
237 227 224 222 226 229 230 228 223 217 206 211 223 225 228 228 227 226 227 226 226 227 229 234 234 235 239 239 239 241 242 244 244 247 252 259 261 264 270 273 274 280 286 294 296
217 224 211 214 216 221 224 224 217 214 206 210 220 226 226 228 227 228 229 228 226 228 229 230 233 236 236 238 239 239 241 245 250 251 255 258 258 263 267 267 273 279 287 289 294
215 218 213 206 204 216 221 220 212 210 210 208 211 222 229 230 229 232 229 229 231 232 230 233 236 237 239 240 240 242 242 245 245 249 249 254 254 260 267 271 277 283 285 286 291
218 226 211 214 208 213 216 221 215 206 207 211 215 220 223 229 229 230 230 228 230 234 233 233 235 239 241 243 242 242 241 244 247 248 251 254 259 260 265 271 277 279 280 285 289
209 204 217 216 222 217 218 223 218 207 209 201 210 220 221 227 227 226 227 228 230 234 237 239 239 242 245 249 254 253 252 252 251 250 256 257 258 257 262 268 271 273 277 283 285
220 222 225 232 225 221 220 221 219 214 218 219 203 214 218 221 225 225 223 227 229 230 236 239 239 240 242 244 248 248 246 248 249 251 250 253 255 258 257 264 267 274 277 283 285
223 217 224 218 217 229 232 228 222 218 219 221 212 209 211 216 227 229 226 228 229 228 235 240 242 238 237 238 243 248 248 246 250 252 252 253 254 260 261 262 266 270 279 279 280
221 224 223 226 221 228 232 224 224 223 229 233 211 208 206 218 225 226 228 231 235 234 235 239 240 240 239 242 245 243 246 252 254 254 258 259 262 262 262 264 270 274 276 278 276
Height
5760 5768 5774 5781 5789 5796 5801 5807 5812 5819 5826 5832 5838 5843 5848 5853 5857 5860 5862 5867 5870 5874 5878 5882 5886 5889 5892 5896 5899 5901 5903 5903 5904 5905 5906 5908 5908 5906 5905 5907 5907 5906 5904 5903 5902
5745 5753 5760 5768 5776 5783 5790 5796 5803 5808 5815 5822 5829 5835 5841 5845 5849 5853 5856 5860 5863 5868 5872 5876 5880 5884 5887 5890 5894 5896 5899 5898 5900 5901 5902 5904 5903 5902 5901 5902 5903 5902 5901 5901 5899
5729 5737 5746 5754 5763 5770 5778 5785 5792 5797 5804 5811 5818 5826 5833 5838 5841 5845 5849 5852 5856 5861 5866 5869 5873 5878 5882 5885 5889 5892 5893 5893 5895 5897 5898 5899 5898 5897 5897 5899 5897 5897 5898 5898 5896
5713 5721 5730 5739 5748 5757 5765 5772 5780 5787 5793 5800 5807 5816 5824 5829 5832 5837 5842 5846 5849 5854 5859 5863 5867 5871 5875 5879 5883 5886 5887 5887 5891 5892 5893 5894 5894 5892 5893 5894 5892 5893 5894 5894 5893
5697 5706 5714 5723 5733 5742 5751 5759 5766 5775 5783 5789 5796 5804 5812 5820 5826 5830 5834 5839 5842 5846 5851 5855 5860 5863 5867 5872 5877 5879 5881 5883 5886 5887 5888 5889 5890 5887 5890 5888 5888 5888 5887 5888 5888
5679 5690 5699 5708 5718 5728 5736 5745 5752 5761 5770 5778 5785 5792 5799 5810 5816 5821 5827 5831 5834 5838 5842 5848 5852 5856 5860 5864 5868 5874 5875 5877 5881 5880 5882 5883 5884 5882 5885 5884 5885 5884 5884 5884 5883
5663 5673 5683 5692 5702 5712 5721 5730 5738 5748 5755 5764 5772 5779 5788 5803 5806 5812 5819 5823 5827 5831 5835 5840 5845 5848 5854 5856 5861 5866 5869 5872 5875 5874 5875 5878 5879 5879 5878 5880 5879 5879 5878 5878 5878
5646 5655 5666 5676 5687 5697 5706 5715 5723 5732 5740 5749 5758 5766 5776 5791 5794 5803 5809 5814 5819 5823 5827 5832 5837 5841 5846 5851 5855 5858 5862 5867 5867 5867 5869 5873 5875 5873 5874 5876 5876 5874 5872 5872 5872
5629 5639 5649 5660 5670 5681 5691 5700 5706 5714 5723 5732 5742 5752 5765 5779 5786 5793 5799 5805 5810 5815 5819 5824 5829 5834 5840 5844 5848 5851 5857 5860 5859 5860 5862 5865 5868 5868 5868 5871 5872 5871 5868 5866 5865
5614 5623 5633 5644 5653 5663 5673 5683 5690 5691 5703 5713 5727 5740 5754 5772 5775 5782 5787 5793 5801 5806 5811 5816 5820 5826 5832 5836 5842 5846 5848 5850 5853 5854 5855 5858 5862 5861 5861 5865 5867 5866 5862 5860 5860
5597 5608 5616 5626 5635 5644 5652 5661 5671 5674 5688 5710 5725 5733 5741 5755 5761 5767 5775 5782 5788 5794 5802 5807 5812 5819 5827 5830 5833 5836 5839 5843 5848 5846 5845 5850 5854 5856 5856 5859 5861 5861 5857 5855 5854
5581 5592 5601 5610 5617 5622 5631 5648 5672 5676 5680 5691 5699 5712 5721 5739 5749 5756 5765 5769 5777 5786 5792 5798 5804 5815 5815 5820 5824 5829 5832 5838 5841 5838 5837 5841 5846 5849 5851 5852 5852 5855 5853 5852 5850
5566 5575 5584 5591 5598 5603 5623 5652 5651 5658 5659 5670 5685 5698 5710 5724 5734 5743 5752 5760 5768 5773 5782 5790 5801 5801 5807 5811 5816 5820 5823 5830 5833 5832 5831 5832 5838 5839 5846 5847 5846 5847 5846 5845 5844
5554 5561 5566 5572 5576 5596 5618 5634 5638 5643 5639 5644 5660 5677 5691 5704 5715 5732 5739 5747 5754 5764 5770 5774 5786 5790 5794 5801 5806 5808 5815 5819 5822 5824 5825 5826 5826 5832 5837 5840 5841 5840 5840 5839 5836
5541 5547 5552 5559 5571 5585 5622 5611 5618 5619 5616 5623 5644 5661 5678 5694 5709 5716 5725 5731 5743 5752 5755 5770 5774 5778 5785 5797 5795 5803 5806 5807 5810 5815 5815 5818 5817 5829 5824 5829 5832 5833 5833 5832 5828
5527 5532 5539 5543 5556 5586 5583 5590 5592 5591 5593 5606 5617 5640 5661 5680 5691 5695 5708 5719 5728 5735 5745 5756 5760 5766 5780 5782 5786 5787 5793 5795 5801 5804 5803 5812 5811 5814 5814 5817 5823 5823 5824 5823 5822
5511 5517 5523 5530 5559 5565 5565 5566 5557 5556 5588 5592 5602 5627 5654 5670 5677 5681 5694 5699 5708 5719 5731 5744 5747 5756 5765 5769 5773 5776 5782 5789 5790 5790 5796 5799 5801 5800 5805 5808 5809 5816 5810 5812 5814
5493 5498 5506 5524 5535 5536 5539 5535 5532 5556 5572 5586 5602 5615 5634 5653 5654 5668 5675 5684 5697 5714 5725 5727 5733 5743 5753 5758 5765 5771 5775 5781 5779 5782 5788 5784 5784 5793 5799 5800 5802 5802 5801 5800 5802
5467 5472 5482 5502 5507 5515 5514 5508 5517 5546 5572 5579 5590 5596 5615 5621 5643 5649 5656 5678 5695 5702 5707 5716 5723 5732 5735 5744 5752 5758 5758 5768 5768 5772 5771 5775 5780 5783 5785 5791 5790 5788 5788 5790 5790
5453 5455 5465 5478 5487 5492 5492 5494 5507 5536 5563 5571 5572 5583 5595 5608 5625 5628 5647 5670 5680 5691 5705 5706 5713 5719 5724 5730 5738 5742 5750 5749 5754 5757 5759 5766 5768 5771 5774 5778 5776 5777 5776 5778 5777
5444 5445 5455 5464 5474 5476 5475 5483 5504 5532 5546 5558 5565 5572 5580 5593 5611 5623 5637 5662 5670 5680 5688 5695 5699 5703 5705 5714 5723 5727 5732 5740 5743 5749 5749 5752 5756 5762 5766 5765 5765 5766 5767 5766 5764
5437 5442 5449 5455 5461 5463 5468 5476 5496 5516 5527 5541 5548 5557 5568 5580 5593 5607 5624 5645 5663 5670 5671 5687 5686 5686 5698 5700 5708 5715 5726 5727 5727 5734 5734 5743 5745 5756 5753 5753 5754 5752 5753 5753 5752
5435 5439 5444 5449 5449 5456 5466 5473 5485 5501 5514 5526 5534 5546 5555 5563 5578 5592 5615 5637 5643 5646 5660 5669 5667 5678 5679 5684 5695 5700 5713 5712 5717 5716 5719 5727 5741 5749 5740 5742 5741 5738 5737 5740 5741
5427 5431 5434 5439 5446 5451 5458 5467 5479 5495 5504 5513 5525 5538 5547 5551 5562 5582 5600 5610 5627 5638 5649 5649 5658 5661 5668 5688 5694 5689 5700 5704 5702 5699 5717 5713 5728 5730 5731 5731 5726 5726 5727 5729 5728
5425 5425 5432 5434 5439 5447 5453 5461 5473 5476 5484 5497 5509 5521 5533 5542 5551 5566 5588 5597 5611 5623 5624 5629 5638 5653 5665 5675 5666 5673 5680 5683 5681 5694 5694 5708 5707 5721 5721 5717 5711 5716 5717 5716 5714
5412 5415 5419 5428 5434 5439 5443 5450 5460 5470 5474 5484 5497 5514 5524 5530 5542 5564 5579 5590 5598 5604 5607 5619 5628 5638 5648 5654 5652 5656 5661 5667 5674 5682 5681 5689 5690 5708 5708 5701 5703 5705 5705 5703 5700
5403 5407 5414 5418 5423 5428 5435 5446 5454 5465 5467 5475 5494 5505 5508 5524 5542 5559 5565 5577 5585 5590 5598 5605 5614 5620 5630 5640 5637 5628 5650 5662 5661 5666 5670 5668 5687 5692 5687 5685 5689 5688 5686 5687 5687